Location: Montr�al
(45.5000°N, 73.5830°W)
Time: 17:32:10
(UTC-04:00)

ISS - Visible Passes

Search period start: 24 May 2016 00:00
Search period end: 03 June 2016 00:00
Orbit: 402 x 404 km, 51.6° (Epoch: 24 May)

Date Brightness Start Highest point End Pass type
(mag) Time Alt. Az. Time Alt. Az. Time Alt. Az.
24 May -0.8 00:14:55 15° ENE 00:14:55 15° ENE 00:15:37 10° ENE visible
24 May -1.4 01:47:29 19° WNW 01:49:05 29° N 01:52:00 10° NE visible
24 May -1.3 03:23:10 10° NW 03:26:07 30° N 03:29:04 10° ENE visible
25 May -1.8 00:55:47 34° NNW 00:56:11 36° NNW 00:59:15 10° NE visible
25 May -1.1 02:30:20 10° NW 02:33:12 27° N 02:36:03 10° ENE visible
25 May -2.7 04:06:50 10° WNW 04:10:04 60° NNE 04:13:18 10° ESE visible
26 May -2.4 00:03:15 48° NNW 00:03:19 48° NNW 00:06:31 10° NE visible
26 May -1.1 01:37:25 10° WNW 01:40:15 26° N 01:43:06 10° ENE visible
26 May -2.0 03:14:06 10° NW 03:17:14 41° NNE 03:20:21 10° E visible
26 May -1.8 21:32:08 10° S 21:34:24 18° SE 21:36:40 10° E visible
26 May -3.2 23:07:15 10° WSW 23:10:31 75° NNW 23:13:47 10° ENE visible
27 May -1.2 00:44:25 10° WNW 00:47:18 28° N 00:50:13 10° NE visible
27 May -1.4 02:21:21 10° NW 02:24:20 32° NNE 02:27:20 10° ENE visible
27 May -3.4 03:57:45 10° WNW 04:01:00 73° SSW 04:04:15 10° SE visible
27 May -3.4 22:14:31 10° SW 22:17:45 65° SSE 22:21:00 10° ENE visible
27 May -1.5 23:51:22 10° W 23:54:23 33° NNW 23:57:24 10° NE visible
28 May -1.1 01:28:31 10° NW 01:31:24 28° N 01:34:17 10° ENE visible
28 May -3.0 03:04:58 10° WNW 03:08:14 69° NNE 03:11:29 10° ESE visible
28 May -2.8 21:22:02 10° SSW 21:25:04 36° SE 21:28:07 10° ENE visible
28 May -2.1 22:58:20 10° W 23:01:29 44° NNW 23:04:39 10° NE visible
29 May -1.0 00:35:37 10° WNW 00:38:27 26° N 00:41:16 10° ENE visible
29 May -2.2 02:12:14 10° NW 02:15:24 45° NNE 02:18:33 10° E visible
29 May -2.7 03:48:47 10° WNW 03:51:47 34° SW 03:54:46 10° SSE visible
29 May -2.9 22:05:23 10° WSW 22:08:38 65° NNW 22:11:54 10° ENE visible
29 May -1.1 23:42:36 10° WNW 23:45:28 27° N 23:48:21 10° NE visible
30 May -1.6 01:19:28 10° NW 01:22:30 34° NNE 01:25:31 10° E visible
30 May -3.4 02:55:52 10° WNW 02:59:06 61° SSW 03:02:19 10° SE visible
30 May -3.4 21:12:35 10° SW 21:15:51 77° SSE 21:19:06 10° ENE visible
30 May -1.4 22:49:33 10° WNW 22:52:31 31° NNW 22:55:30 10° NE visible
31 May -1.3 00:26:38 10° NW 00:29:33 29° N 00:32:27 10° ENE visible
31 May -3.0 02:03:04 10° WNW 02:05:52 61° NW 02:05:52 61° NW visible
31 May -1.8 21:56:28 10° W 21:59:35 40° NNW 22:02:42 10° NE visible
31 May -1.1 23:33:44 10° WNW 23:36:34 26° N 23:39:25 10° ENE visible
01 Jun -2.5 01:10:17 10° NW 01:13:27 50° NNE 01:13:27 50° NNE visible
01 Jun -1.1 22:40:44 10° WNW 22:43:34 27° N 22:46:26 10° ENE visible
02 Jun -1.8 00:17:30 10° NW 00:20:35 36° NNE 00:21:44 27° ENE visible
02 Jun -0.7 01:53:56 10° WNW 01:54:18 13° WNW 01:54:18 13° WNW visible
02 Jun -1.3 21:47:39 10° WNW 21:50:35 30° N 21:53:32 10° NE visible
02 Jun -1.4 23:24:41 10° NW 23:27:38 30° N 23:30:16 12° ENE visible
